Stündliche Wetter Wargawa

Heute, 27 Oktober, Dienstag

Zeit Temperatur Niederschläge Wind Luftdruck Luftfeuchtigkeit
00:00 +13°C° 0 mm 3 m/S 744 mmHg 80%
01:00 +13°C° 0 mm 3 m/S 744 mmHg 83%
02:00 +13°C° 0 mm 2 m/S 745 mmHg 85%
03:00 +12°C° 0 mm 2 m/S 745 mmHg 88%
04:00 +10°C° 0 mm 2 m/S 745 mmHg 91%
05:00 +10°C° 0 mm 2 m/S 746 mmHg 91%
06:00 +10°C° 0 mm 2 m/S 746 mmHg 90%
07:00 +10°C° 0 mm 2 m/S 747 mmHg 89%
08:00 +12°C° 0 mm 2 m/S 747 mmHg 86%
09:00 +13°C° 0 mm 2 m/S 747 mmHg 83%
10:00 +13°C° 0 mm 2 m/S 747 mmHg 80%
11:00 +13°C° 0 mm 2 m/S 748 mmHg 79%
12:00 +14°C° 0 mm 2 m/S 748 mmHg 77%
13:00 +14°C° 0 mm 2 m/S 748 mmHg 75%
14:00 +13°C° 0 mm 2 m/S 748 mmHg 77%
15:00 +13°C° 0 mm 1 m/S 748 mmHg 80%
16:00 +12°C° 0 mm 1 m/S 748 mmHg 82%
17:00 +12°C° 0.2 mm 1 m/S 748 mmHg 83%
18:00 +12°C° 0.2 mm 1 m/S 748 mmHg 85%
19:00 +12°C° 0.2 mm 1 m/S 749 mmHg 87%
20:00 +11°C° 0.7 mm 1 m/S 749 mmHg 88%
21:00 +11°C° 0.7 mm 1 m/S 749 mmHg 90%
22:00 +10°C° 0.7 mm 2 m/S 749 mmHg 92%
23:00 +9°C° 0 mm 2 m/S 749 mmHg 92%

Morgen, 28 Oktober, Mittwoch

Zeit Temperatur Niederschläge Wind Luftdruck Luftfeuchtigkeit
00:00 +9°C° 0 mm 2 m/S 750 mmHg 92%
01:00 +9°C° 0 mm 2 m/S 750 mmHg 93%
02:00 +8°C° 0 mm 2 m/S 750 mmHg 92%
03:00 +8°C° 0 mm 2 m/S 750 mmHg 91%
04:00 +8°C° 0 mm 2 m/S 750 mmHg 91%
05:00 +8°C° 0 mm 2 m/S 750 mmHg 90%
06:00 +7°C° 0 mm 3 m/S 750 mmHg 89%
07:00 +7°C° 0 mm 3 m/S 751 mmHg 89%
08:00 +9°C° 0 mm 3 m/S 751 mmHg 81%
09:00 +10°C° 0 mm 4 m/S 751 mmHg 73%
10:00 +11°C° 0 mm 4 m/S 751 mmHg 65%
11:00 +12°C° 0 mm 4 m/S 751 mmHg 63%
12:00 +13°C° 0 mm 4 m/S 750 mmHg 60%
13:00 +14°C° 0 mm 5 m/S 750 mmHg 57%
14:00 +13°C° 0 mm 4 m/S 750 mmHg 60%
15:00 +12°C° 0 mm 4 m/S 750 mmHg 62%
16:00 +12°C° 0 mm 3 m/S 750 mmHg 64%
17:00 +11°C° 0 mm 3 m/S 750 mmHg 66%
18:00 +11°C° 0 mm 3 m/S 751 mmHg 68%
19:00 +10°C° 0 mm 4 m/S 751 mmHg 69%
20:00 +10°C° 0 mm 4 m/S 751 mmHg 72%
21:00 +9°C° 0 mm 3 m/S 751 mmHg 76%
22:00 +9°C° 0 mm 3 m/S 751 mmHg 79%
23:00 +9°C° 0 mm 3 m/S 751 mmHg 81%

übermorgen, 29 Oktober, Donnerstag

Zeit Temperatur Niederschläge Wind Luftdruck Luftfeuchtigkeit
00:00 +8°C° 0 mm 3 m/S 751 mmHg 83%
01:00 +8°C° 0 mm 3 m/S 751 mmHg 85%
02:00 +8°C° 0 mm 3 m/S 751 mmHg 86%
03:00 +7°C° 0 mm 3 m/S 751 mmHg 87%
04:00 +7°C° 0 mm 3 m/S 751 mmHg 88%
05:00 +7°C° 0 mm 3 m/S 751 mmHg 88%
06:00 +7°C° 0 mm 3 m/S 751 mmHg 88%
07:00 +7°C° 0 mm 3 m/S 751 mmHg 89%
08:00 +7°C° 0.1 mm 4 m/S 751 mmHg 87%
09:00 +8°C° 0.1 mm 4 m/S 751 mmHg 85%
10:00 +8°C° 0.1 mm 4 m/S 751 mmHg 83%
11:00 +10°C° 0.1 mm 4 m/S 750 mmHg 80%
12:00 +11°C° 0.1 mm 4 m/S 750 mmHg 78%
13:00 +11°C° 0.1 mm 4 m/S 750 mmHg 75%
14:00 +11°C° 0.2 mm 4 m/S 750 mmHg 78%
15:00 +10°C° 0.2 mm 5 m/S 750 mmHg 80%
16:00 +9°C° 0.2 mm 5 m/S 751 mmHg 82%
17:00 +9°C° 0.1 mm 5 m/S 751 mmHg 83%
18:00 +8°C° 0.1 mm 5 m/S 751 mmHg 83%
19:00 +7°C° 0.1 mm 4 m/S 752 mmHg 84%
20:00 +7°C° 0 mm 4 m/S 752 mmHg 84%
21:00 +6°C° 0 mm 4 m/S 753 mmHg 85%
22:00 +6°C° 0 mm 4 m/S 753 mmHg 86%
23:00 +6°C° 0 mm 4 m/S 753 mmHg 87%

30 Oktober, Freitag

Zeit Temperatur Niederschläge Wind Luftdruck Luftfeuchtigkeit
00:00 +5°C° 0 mm 4 m/S 754 mmHg 87%
01:00 +5°C° 0 mm 4 m/S 754 mmHg 88%
02:00 +5°C° 0 mm 4 m/S 754 mmHg 89%
03:00 +5°C° 0 mm 4 m/S 755 mmHg 90%
04:00 +5°C° 0 mm 5 m/S 755 mmHg 92%
05:00 +5°C° 0 mm 5 m/S 755 mmHg 91%
06:00 +5°C° 0 mm 5 m/S 755 mmHg 91%
07:00 +5°C° 0 mm 5 m/S 755 mmHg 91%
08:00 +5°C° 0 mm 5 m/S 756 mmHg 88%
09:00 +6°C° 0 mm 5 m/S 756 mmHg 85%
10:00 +6°C° 0 mm 5 m/S 756 mmHg 82%
11:00 +7°C° 0 mm 5 m/S 756 mmHg 78%
12:00 +8°C° 0 mm 5 m/S 756 mmHg 74%
13:00 +9°C° 0 mm 5 m/S 756 mmHg 70%
14:00 +8°C° 0 mm 4 m/S 756 mmHg 72%
15:00 +9°C° 0 mm 3 m/S 756 mmHg 73%
16:00 +8°C° 0 mm 3 m/S 756 mmHg 75%
17:00 +8°C° 0 mm 2 m/S 756 mmHg 77%
18:00 +7°C° 0 mm 2 m/S 756 mmHg 80%
19:00 +7°C° 0 mm 2 m/S 757 mmHg 82%
20:00 +7°C° 0 mm 1 m/S 757 mmHg 84%
21:00 +7°C° 0 mm 1 m/S 757 mmHg 86%
22:00 +7°C° 0 mm 1 m/S 757 mmHg 88%
23:00 +7°C° 0 mm 1 m/S 757 mmHg 90%

31 Oktober, Samstag

Zeit Temperatur Niederschläge Wind Luftdruck Luftfeuchtigkeit
00:00 +7°C° 0 mm 1 m/S 757 mmHg 91%
01:00 +6°C° 0 mm 1 m/S 757 mmHg 92%
02:00 +6°C° 0 mm 1 m/S 757 mmHg 92%
03:00 +5°C° 0 mm 0 m/S 757 mmHg 93%
04:00 +5°C° 0 mm 0 m/S 758 mmHg 93%
05:00 +6°C° 0 mm 1 m/S 758 mmHg 93%
06:00 +6°C° 0 mm 1 m/S 758 mmHg 93%
07:00 +6°C° 0 mm 1 m/S 758 mmHg 93%
08:00 +6°C° 0 mm 2 m/S 758 mmHg 88%
09:00 +8°C° 0 mm 2 m/S 758 mmHg 83%
10:00 +9°C° 0 mm 2 m/S 758 mmHg 78%
11:00 +10°C° 0 mm 2 m/S 758 mmHg 74%
12:00 +12°C° 0 mm 2 m/S 758 mmHg 70%
13:00 +12°C° 0 mm 2 m/S 758 mmHg 66%
14:00 +12°C° 0 mm 2 m/S 758 mmHg 69%
15:00 +10°C° 0 mm 2 m/S 758 mmHg 72%
16:00 +9°C° 0 mm 2 m/S 758 mmHg 75%
17:00 +8°C° 0 mm 2 m/S 758 mmHg 78%
18:00 +8°C° 0 mm 2 m/S 758 mmHg 80%
19:00 +7°C° 0 mm 3 m/S 759 mmHg 83%
20:00 +5°C° 0 mm 3 m/S 759 mmHg 82%
21:00 +5°C° 0 mm 3 m/S 759 mmHg 82%
22:00 +5°C° 0 mm 3 m/S 759 mmHg 82%
23:00 +4°C° 0 mm 3 m/S 759 mmHg 82%

1 November, Sonntag

Zeit Temperatur Niederschläge Wind Luftdruck Luftfeuchtigkeit
00:00 +4°C° 0 mm 3 m/S 759 mmHg 83%
01:00 +4°C° 0 mm 3 m/S 759 mmHg 83%
02:00 +4°C° 0 mm 3 m/S 759 mmHg 85%
03:00 +3°C° 0 mm 3 m/S 759 mmHg 86%
04:00 +3°C° 0 mm 3 m/S 759 mmHg 87%
05:00 +3°C° 0 mm 3 m/S 759 mmHg 88%
06:00 +3°C° 0 mm 3 m/S 759 mmHg 90%
07:00 +3°C° 0 mm 3 m/S 759 mmHg 91%
08:00 +4°C° 0 mm 3 m/S 759 mmHg 85%
09:00 +7°C° 0 mm 3 m/S 759 mmHg 79%
10:00 +8°C° 0 mm 3 m/S 759 mmHg 73%
11:00 +9°C° 0 mm 3 m/S 759 mmHg 69%
12:00 +10°C° 0 mm 3 m/S 759 mmHg 64%
13:00 +11°C° 0 mm 3 m/S 759 mmHg 60%
14:00 +10°C° 0 mm 3 m/S 759 mmHg 64%
15:00 +9°C° 0 mm 3 m/S 759 mmHg 67%
16:00 +8°C° 0 mm 3 m/S 758 mmHg 71%
17:00 +8°C° 0 mm 3 m/S 758 mmHg 74%
18:00 +7°C° 0 mm 3 m/S 759 mmHg 76%
19:00 +5°C° 0 mm 3 m/S 759 mmHg 79%
20:00 +5°C° 0 mm 3 m/S 759 mmHg 81%
21:00 +5°C° 0 mm 3 m/S 759 mmHg 83%
22:00 +6°C° 0 mm 2 m/S 759 mmHg 85%
23:00 +5°C° 0 mm 2 m/S 759 mmHg 86%
Mehr zeigen

Wir brauchen deine Erlaubnis

Meteoprog und unser Service Anbieter werden persönliche Daten aufbewahren, so wie Cookies, Geräte Bezeichnung oder ähnliche Technologien von deinem Gerät und Prozess, so wie Persönliche Daten Inhalte und Werbungen, genauso wie social Media und den Verkehr zu analysieren.

  • Aufbewahrung und/oder Zugang zu deiner Geräte Informationen.

    Cookies, Geräte Bezeichnung oder andere Informationen, können aufbewahrt oder Zugang zu deinem Gerät erhalten, für den Grund, der oben angegeben wird.

  • Personalisierte Werbung und Inhalte, Messungen, Einblick in das Publikum und Produkt Entwicklung.

    Werbungen und Inhalte können personalisiert werden, basierend auf ein Profil. Mehr Daten können besser personalisierte Werbungen und Inhalte hinzufügen. Werbung und Inhalte können gezeigt und gemessen werden. Einblicke über das Publikum, welche die Werbung gesehen haben und den Inhalt, können abgeleitet werden. So wie Daten können genutzt werden, um es zu verbessern oder die Benutzer Erfahrung zu verbessern das System und die Software.

Wenn du “Ich stimme zu” klickst, erlaubst du uns, die Cookies zu benutzen die Geräte Bezeichnung, den Web oder ähnliche Technologien zu benutzen. Deine Settings, können in deinem Gerät bei deinem Browser geändert werden.

Für den bestimmten Zweck, berechtigten Interessen beruhen darauf, mehr als auf den Inhalt. Du kannst mehr darüber in unseren Privaten und Cookie Politik lesen.